QPF
0.02 0.02 0.00 0.00 0.00 0.00 0.01 0.01 0.01 0.01 0.02 0.02 0.00 0.00 0.00 0.00 0.00 0.00 0.00 0.00 0.00 0.00 0.00 0.00 0.00 0.00 0.00 0.00 0.00 0.00 0.00 0.00 0.00 0.00 0.00 0.00 0.00 0.00 0.00 0.00 0.00 0.00 0.00 0.00 0.00
0.01 0.00 0.01 0.00 0.00 0.01 0.01 0.01 0.01 0.01 0.01 0.01 0.02 0.00 0.00 0.00 0.00 0.00 0.00 0.00 0.00 0.00 0.00 0.00 0.00 0.00 0.00 0.00 0.00 0.00 0.00 0.00 0.00 0.00 0.00 0.00 0.00 0.00 0.00 0.00 0.00 0.00 0.00 0.00 0.00
0.03 0.02 0.01 0.00 0.00 0.00 0.01 0.00 0.00 0.01 0.00 0.01 0.02 0.01 0.00 0.00 0.00 0.00 0.00 0.00 0.00 0.00 0.00 0.00 0.00 0.00 0.00 0.00 0.00 0.00 0.00 0.00 0.00 0.00 0.00 0.00 0.00 0.00 0.00 0.00 0.00 0.00 0.00 0.00 0.00
0.01 0.01 0.01 0.01 0.00 0.00 0.00 0.00 0.00 0.00 0.00 0.00 0.02 0.01 0.00 0.00 0.00 0.00 0.00 0.00 0.00 0.00 0.00 0.00 0.00 0.00 0.00 0.00 0.00 0.00 0.00 0.00 0.00 0.00 0.00 0.00 0.00 0.00 0.00 0.00 0.00 0.00 0.00 0.00 0.00
0.06 0.08 0.03 0.01 0.00 0.00 0.00 0.00 0.00 0.01 0.01 0.01 0.02 0.03 0.01 0.00 0.00 0.00 0.00 0.00 0.00 0.00 0.00 0.00 0.00 0.00 0.00 0.00 0.00 0.00 0.00 0.00 0.00 0.00 0.00 0.00 0.00 0.00 0.00 0.00 0.00 0.00 0.00 0.00 0.00
0.05 0.05 0.03 0.01 0.00 0.00 0.00 0.00 0.00 0.00 0.01 0.01 0.04 0.04 0.01 0.00 0.00 0.00 0.00 0.00 0.00 0.00 0.00 0.00 0.00 0.00 0.00 0.00 0.00 0.00 0.00 0.00 0.00 0.00 0.00 0.00 0.00 0.00 0.00 0.00 0.00 0.00 0.00 0.00 0.00
0.01 0.01 0.04 0.02 0.00 0.00 0.00 0.00 0.00 0.00 0.00 0.01 0.07 0.07 0.02 0.00 0.00 0.00 0.00 0.00 0.00 0.00 0.00 0.00 0.00 0.00 0.00 0.00 0.00 0.00 0.00 0.00 0.00 0.00 0.00 0.00 0.00 0.00 0.00 0.00 0.00 0.00 0.00 0.00 0.00
0.02 0.01 0.03 0.02 0.00 0.00 0.00 0.00 0.00 0.00 0.00 0.01 0.09 0.11 0.04 0.00 0.00 0.00 0.00 0.00 0.00 0.00 0.00 0.00 0.00 0.00 0.00 0.00 0.00 0.00 0.00 0.00 0.00 0.00 0.00 0.00 0.00 0.00 0.00 0.00 0.00 0.00 0.00 0.00 0.00
0.01 0.03 0.05 0.04 0.00 0.00 0.00 0.00 0.00 0.00 0.00 0.01 0.08 0.18 0.06 0.00 0.00 0.00 0.00 0.00 0.00 0.00 0.00 0.00 0.00 0.00 0.00 0.00 0.00 0.00 0.00 0.00 0.00 0.00 0.00 0.00 0.00 0.00 0.00 0.00 0.00 0.00 0.00 0.00 0.00
0.02 0.03 0.03 0.00 0.00 0.00 0.00 0.00 0.00 0.00 0.00 0.03 0.07 0.30 0.07 0.00 0.00 0.00 0.00 0.00 0.00 0.00 0.00 0.00 0.00 0.00 0.00 0.00 0.00 0.00 0.00 0.00 0.00 0.00 0.00 0.00 0.00 0.00 0.00 0.00 0.00 0.00 0.00 0.00 0.00
0.04 0.03 0.02 0.00 0.00 0.00 0.00 0.00 0.00 0.00 0.00 0.06 0.20 0.19 0.04 0.00 0.00 0.00 0.00 0.00 0.00 0.00 0.00 0.00 0.00 0.00 0.00 0.00 0.00 0.00 0.00 0.00 0.00 0.00 0.00 0.00 0.00 0.00 0.00 0.00 0.00 0.00 0.00 0.00 0.00
0.01 0.01 0.00 0.00 0.00 0.00 0.00 0.00 0.00 0.00 0.00 0.00 0.08 0.11 0.03 0.01 0.00 0.00 0.00 0.00 0.00 0.00 0.00 0.00 0.00 0.00 0.00 0.00 0.00 0.00 0.00 0.00 0.00 0.00 0.00 0.00 0.00 0.00 0.00 0.00 0.00 0.00 0.00 0.00 0.00
0.01 0.00 0.00 0.00 0.00 0.01 0.00 0.00 0.00 0.00 0.00 0.00 0.01 0.08 0.08 0.02 0.00 0.00 0.00 0.00 0.00 0.00 0.00 0.00 0.00 0.00 0.00 0.00 0.00 0.00 0.00 0.00 0.00 0.00 0.00 0.00 0.00 0.00 0.00 0.00 0.00 0.00 0.00 0.00 0.00
0.01 0.00 0.00 0.00 0.00 0.00 0.01 0.00 0.00 0.00 0.00 0.00 0.00 0.05 0.17 0.03 0.00 0.00 0.00 0.00 0.00 0.00 0.00 0.00 0.00 0.00 0.00 0.00 0.00 0.00 0.00 0.00 0.00 0.00 0.00 0.00 0.00 0.00 0.00 0.00 0.00 0.00 0.00 0.00 0.00
0.00 0.00 0.00 0.01 0.00 0.00 0.00 0.00 0.00 0.01 0.02 0.03 0.02 0.01 0.19 0.06 0.00 0.00 0.00 0.00 0.00 0.00 0.00 0.00 0.00 0.00 0.00 0.00 0.00 0.00 0.00 0.00 0.00 0.00 0.00 0.00 0.00 0.00 0.00 0.00 0.00 0.00 0.00 0.00 0.00
0.00 0.00 0.00 0.00 0.00 0.01 0.01 0.00 0.00 0.01 0.03 0.23 0.11 0.02 0.19 0.16 0.00 0.00 0.00 0.00 0.00 0.00 0.00 0.00 0.00 0.00 0.00 0.00 0.00 0.00 0.00 0.00 0.00 0.00 0.00 0.00 0.00 0.00 0.00 0.00 0.00 0.00 0.00 0.00 0.00
0.00 0.00 0.00 0.00 0.00 0.01 0.00 0.00 0.01 0.00 0.01 0.24 0.11 0.09 0.16 0.24 0.06 0.01 0.00 0.00 0.00 0.00 0.00 0.00 0.00 0.00 0.00 0.00 0.00 0.00 0.00 0.00 0.00 0.00 0.00 0.00 0.00 0.00 0.00 0.00 0.00 0.00 0.00 0.00 0.00
0.00 0.00 0.00 0.00 0.00 0.00 0.01 0.00 0.00 0.00 0.02 0.02 0.01 0.03 0.12 0.21 0.17 0.02 0.00 0.00 0.00 0.00 0.00 0.00 0.00 0.00 0.00 0.00 0.00 0.00 0.00 0.00 0.00 0.00 0.00 0.00 0.00 0.00 0.00 0.00 0.00 0.00 0.00 0.00 0.00
0.00 0.00 0.00 0.00 0.00 0.00 0.01 0.00 0.00 0.00 0.01 0.00 0.00 0.02 0.05 0.12 0.13 0.06 0.00 0.00 0.00 0.00 0.00 0.00 0.00 0.00 0.00 0.00 0.00 0.00 0.00 0.00 0.00 0.00 0.00 0.00 0.00 0.00 0.00 0.00 0.00 0.00 0.00 0.00 0.00
0.00 0.00 0.03 0.05 0.00 0.01 0.01 0.00 0.01 0.01 0.01 0.00 0.00 0.01 0.08 0.19 0.20 0.19 0.03 0.00 0.00 0.00 0.00 0.00 0.00 0.00 0.00 0.00 0.00 0.00 0.00 0.00 0.00 0.00 0.00 0.00 0.00 0.00 0.00 0.00 0.00 0.00 0.00 0.00 0.00
0.00 0.00 0.03 0.02 0.00 0.01 0.03 0.01 0.00 0.01 0.01 0.01 0.01 0.01 0.03 0.12 0.30 0.24 0.07 0.00 0.00 0.00 0.00 0.00 0.00 0.00 0.00 0.00 0.00 0.00 0.00 0.00 0.00 0.00 0.00 0.00 0.00 0.00 0.00 0.00 0.00 0.00 0.00 0.00 0.00
0.00 0.00 0.00 0.00 0.00 0.00 0.01 0.00 0.00 0.00 0.00 0.00 0.01 0.01 0.01 0.04 0.06 0.27 0.09 0.00 0.00 0.00 0.00 0.00 0.00 0.00 0.00 0.00 0.00 0.00 0.00 0.00 0.00 0.00 0.00 0.00 0.00 0.00 0.00 0.00 0.00 0.00 0.00 0.00 0.00
0.00 0.00 0.00 0.00 0.00 0.00 0.00 0.00 0.00 0.00 0.00 0.02 0.03 0.03 0.02 0.05 0.03 0.05 0.10 0.00 0.00 0.00 0.00 0.00 0.00 0.00 0.00 0.00 0.00 0.00 0.00 0.00 0.00 0.00 0.00 0.00 0.00 0.00 0.00 0.00 0.00 0.00 0.00 0.00 0.00
0.00 0.00 0.00 0.00 0.00 0.00 0.00 0.00 0.00 0.00 0.00 0.02 0.02 0.01 0.02 0.07 0.11 0.02 0.01 0.01 0.00 0.00 0.00 0.00 0.00 0.00 0.00 0.00 0.00 0.00 0.00 0.00 0.00 0.00 0.00 0.00 0.00 0.00 0.00 0.00 0.00 0.00 0.00 0.00 0.00
0.00 0.00 0.00 0.00 0.00 0.00 0.00 0.01 0.01 0.00 0.00 0.00 0.00 0.00 0.02 0.05 0.03 0.01 0.01 0.01 0.01 0.01 0.00 0.00 0.01 0.00 0.00 0.00 0.00 0.00 0.00 0.00 0.00 0.00 0.00 0.00 0.00 0.00 0.00 0.00 0.00 0.00 0.00 0.00 0.00
0.01 0.03 0.02 0.00 0.00 0.00 0.00 0.01 0.00 0.00 0.00 0.00 0.00 0.00 0.00 0.01 0.02 0.01 0.06 0.04 0.04 0.02 0.00 0.01 0.03 0.00 0.00 0.00 0.00 0.00 0.00 0.00 0.00 0.00 0.00 0.00 0.00 0.00 0.00 0.00 0.00 0.00 0.00 0.00 0.00
0.01 0.02 0.04 0.00 0.00 0.00 0.00 0.00 0.00 0.03 0.03 0.00 0.00 0.01 0.00 0.00 0.00 0.00 0.04 0.05 0.10 0.05 0.03 0.01 0.01 0.00 0.00 0.00 0.00 0.00 0.00 0.00 0.00 0.00 0.00 0.00 0.00 0.00 0.00 0.00 0.00 0.00 0.00 0.00 0.00
MSLP
1014.81 1014.52 1014.50 1014.38 1014.22 1014.04 1013.89 1013.65 1013.60 1013.44 1013.09 1012.76 1012.41 1012.43 1012.34 1012.34 1012.22 1012.21 1011.49 1010.36 1010.29 1010.43 1010.62 1010.86 1011.29 1011.39 1011.61 1011.65 1011.37 1011.34 1012.04 1011.79 1010.77 1010.05 1009.63 1009.15 1009.45 1010.07 1010.25 1010.91 1011.81 1012.29 1012.90 1013.34 1014.56
1014.50 1014.43 1014.44 1014.29 1014.11 1013.97 1013.76 1013.57 1013.40 1013.39 1013.17 1012.82 1012.53 1012.31 1012.09 1012.05 1012.07 1011.30 1009.93 1009.68 1009.91 1009.89 1010.81 1010.67 1011.18 1011.49 1011.82 1011.64 1011.47 1011.68 1011.57 1010.54 1009.71 1009.29 1008.99 1008.99 1009.12 1009.96 1010.80 1011.56 1012.64 1012.85 1013.05 1013.84 1014.54
1014.44 1014.40 1014.28 1014.26 1014.12 1013.91 1013.67 1013.60 1013.41 1013.25 1013.32 1012.91 1012.50 1012.10 1011.97 1011.99 1011.62 1009.28 1008.21 1008.90 1009.30 1009.56 1010.26 1010.59 1010.82 1011.38 1011.75 1011.49 1011.43 1011.33 1010.96 1009.72 1009.19 1008.76 1008.18 1009.06 1009.58 1009.76 1010.89 1012.05 1012.34 1012.99 1013.67 1014.31 1014.95
1014.27 1014.22 1014.14 1014.12 1013.93 1013.73 1013.69 1013.54 1013.25 1012.87 1012.87 1012.85 1012.50 1012.13 1012.00 1012.07 1010.56 1008.02 1007.89 1008.39 1008.79 1009.24 1010.06 1010.53 1010.97 1011.33 1011.55 1011.37 1011.02 1011.07 1010.29 1009.78 1009.25 1008.97 1008.95 1009.01 1009.59 1010.18 1010.77 1011.24 1011.71 1012.46 1013.26 1014.18 1015.08
1014.23 1014.25 1014.11 1014.11 1013.95 1013.79 1013.67 1013.52 1013.21 1012.90 1012.72 1012.55 1012.41 1012.37 1012.06 1011.40 1009.41 1007.71 1007.76 1007.75 1008.64 1009.21 1009.63 1010.07 1010.67 1011.04 1011.02 1010.86 1010.82 1010.81 1010.37 1009.71 1009.35 1009.14 1009.14 1009.24 1009.83 1010.43 1011.06 1011.17 1011.80 1012.74 1013.59 1014.39 1015.14
1014.12 1014.05 1013.86 1013.82 1013.73 1013.61 1013.35 1013.19 1013.05 1012.76 1012.53 1012.31 1012.40 1012.43 1011.72 1010.27 1008.39 1007.70 1007.57 1007.84 1008.33 1009.03 1009.36 1009.77 1009.81 1010.16 1010.46 1010.36 1010.48 1010.12 1010.12 1010.22 1009.62 1009.58 1009.29 1009.40 1010.25 1010.48 1011.69 1011.55 1012.24 1012.95 1013.80 1014.49 1014.98
1014.07 1014.03 1013.96 1013.82 1013.50 1013.42 1013.13 1012.85 1012.68 1012.40 1012.33 1012.37 1012.17 1012.38 1010.78 1009.16 1008.08 1007.68 1007.74 1008.01 1008.25 1008.50 1009.09 1009.38 1009.36 1009.67 1009.87 1010.06 1009.85 1010.13 1010.47 1010.71 1010.24 1009.99 1009.98 1009.84 1010.86 1011.27 1011.72 1012.10 1012.75 1013.54 1014.01 1014.54 1014.97
1014.45 1014.19 1014.02 1013.89 1013.57 1013.25 1012.84 1012.58 1012.27 1012.09 1011.76 1011.88 1011.98 1012.06 1010.21 1008.40 1007.94 1008.11 1008.03 1008.23 1008.37 1008.71 1008.77 1009.03 1009.42 1009.57 1009.91 1009.67 1009.71 1010.45 1010.71 1011.19 1010.81 1010.60 1010.49 1010.61 1011.24 1011.48 1011.71 1012.28 1013.13 1013.67 1014.26 1014.61 1014.86
1014.62 1014.36 1014.01 1013.76 1013.55 1013.15 1012.69 1012.18 1011.49 1011.28 1011.08 1010.83 1011.45 1011.29 1009.32 1007.47 1007.64 1007.54 1008.09 1008.14 1008.21 1008.75 1008.92 1008.95 1009.38 1009.72 1009.87 1010.32 1010.68 1010.59 1011.12 1011.12 1011.40 1011.03 1011.04 1011.48 1011.60 1011.29 1011.68 1012.33 1013.18 1013.59 1014.15 1014.47 1014.84
1014.76 1014.41 1013.98 1013.66 1013.38 1013.01 1012.41 1011.58 1010.67 1010.18 1010.45 1010.65 1011.00 1011.49 1009.39 1006.66 1006.72 1007.00 1007.46 1007.82 1008.23 1008.85 1009.29 1009.25 1009.60 1009.89 1010.16 1010.55 1010.52 1010.83 1011.11 1010.86 1011.25 1011.45 1011.56 1011.85 1012.05 1011.85 1011.85 1012.23 1012.93 1013.50 1013.96 1014.44 1014.63
1014.81 1014.39 1013.95 1013.56 1013.27 1012.93 1012.46 1011.80 1011.68 1011.50 1011.01 1010.85 1010.57 1010.80 1008.69 1007.09 1006.02 1006.48 1006.80 1007.81 1008.26 1008.92 1009.37 1009.47 1009.69 1009.30 1009.84 1010.06 1010.14 1010.60 1010.96 1010.99 1010.72 1010.84 1011.52 1011.89 1012.32 1012.48 1012.33 1012.60 1013.13 1013.63 1014.01 1014.33 1014.80
1014.96 1014.47 1013.99 1013.53 1013.11 1012.81 1012.68 1013.11 1013.38 1013.83 1012.35 1010.06 1009.54 1009.84 1009.19 1008.35 1006.78 1006.13 1006.28 1007.26 1008.18 1008.63 1009.32 1010.01 1009.00 1009.39 1009.83 1010.00 1010.19 1010.44 1010.61 1011.09 1010.92 1010.84 1011.50 1012.30 1012.57 1012.50 1012.58 1012.49 1012.72 1013.30 1014.01 1014.43 1015.08
1015.22 1014.61 1014.03 1013.46 1012.92 1012.79 1012.95 1013.21 1013.39 1013.88 1013.35 1009.97 1008.75 1007.80 1007.73 1008.21 1006.45 1005.61 1005.90 1006.37 1007.44 1008.32 1008.60 1008.76 1008.75 1009.24 1009.36 1009.72 1010.08 1010.01 1010.28 1010.85 1011.07 1011.32 1011.92 1012.41 1013.13 1012.85 1012.76 1012.59 1012.79 1013.16 1013.50 1014.39 1014.89
1015.27 1014.66 1014.15 1013.49 1013.03 1012.97 1012.97 1013.14 1013.52 1013.72 1012.76 1010.11 1008.25 1006.91 1007.81 1007.84 1006.27 1005.13 1005.32 1005.61 1007.04 1007.36 1008.27 1008.67 1008.44 1008.43 1008.78 1009.03 1009.34 1009.62 1009.62 1010.20 1011.20 1011.91 1012.43 1012.22 1012.94 1012.73 1012.47 1012.74 1013.04 1013.43 1013.92 1014.51 1015.13
1015.34 1014.70 1014.15 1013.77 1013.80 1013.37 1013.13 1013.06 1013.29 1013.55 1012.18 1010.12 1008.50 1007.53 1007.28 1007.62 1006.04 1004.86 1005.13 1005.41 1005.59 1006.22 1007.19 1007.20 1007.44 1007.82 1007.84 1007.73 1008.70 1009.16 1009.32 1010.17 1011.36 1012.24 1012.51 1012.84 1013.19 1011.89 1011.90 1012.74 1013.30 1013.64 1014.17 1014.81 1015.40
1015.10 1014.42 1013.88 1013.74 1013.66 1013.15 1012.93 1012.99 1013.35 1013.61 1012.22 1010.97 1010.67 1009.24 1008.05 1007.33 1006.05 1004.87 1005.22 1005.46 1005.35 1006.12 1006.73 1007.00 1006.72 1007.33 1007.06 1007.69 1008.11 1008.61 1009.69 1010.78 1012.02 1013.05 1013.27 1012.35 1012.52 1011.94 1011.68 1011.48 1012.12 1013.16 1014.21 1014.75 1015.65
1014.82 1013.89 1013.37 1013.33 1013.38 1012.90 1012.89 1013.22 1013.66 1013.10 1011.64 1012.05 1010.71 1009.68 1009.45 1008.29 1006.55 1005.30 1005.35 1005.50 1004.92 1005.35 1006.21 1006.88 1006.76 1006.65 1006.61 1007.52 1008.00 1008.36 1009.65 1011.99 1013.33 1013.74 1013.02 1012.36 1012.53 1010.91 1010.33 1010.14 1010.36 1011.79 1013.46 1014.75 1015.75
1014.56 1013.62 1013.12 1013.13 1013.12 1012.91 1013.19 1013.79 1014.00 1012.85 1012.22 1012.01 1011.22 1010.15 1009.47 1008.46 1006.91 1006.02 1005.37 1005.63 1005.19 1004.80 1005.96 1006.49 1007.49 1006.45 1006.07 1006.25 1006.50 1007.47 1008.60 1010.13 1011.56 1012.91 1013.00 1012.74 1011.89 1010.44 1010.42 1010.46 1010.48 1011.42 1013.10 1014.80 1016.03
1014.41 1013.95 1013.52 1013.53 1013.10 1013.21 1013.87 1014.09 1013.63 1012.66 1012.45 1011.90 1011.18 1010.69 1009.47 1008.20 1007.43 1006.55 1005.45 1004.83 1004.32 1004.15 1004.52 1005.48 1006.46 1006.10 1006.05 1005.84 1006.24 1007.48 1008.17 1008.84 1010.48 1011.92 1012.51 1011.79 1011.38 1010.76 1010.87 1011.25 1011.52 1012.28 1013.58 1014.94 1015.93
1014.98 1014.73 1014.43 1013.94 1013.64 1014.07 1014.73 1014.49 1013.49 1012.62 1012.31 1011.73 1011.44 1011.04 1011.09 1010.27 1008.65 1006.68 1005.70 1004.42 1003.95 1003.60 1003.37 1004.44 1006.26 1006.47 1006.36 1006.01 1006.58 1006.37 1007.15 1008.72 1009.84 1011.25 1011.66 1011.34 1010.87 1010.45 1011.28 1011.81 1012.62 1013.16 1013.76 1014.97 1015.98
1015.35 1015.16 1014.82 1014.16 1014.20 1014.87 1015.52 1014.89 1013.92 1013.08 1012.11 1011.77 1011.41 1011.33 1011.12 1010.57 1009.27 1007.91 1005.45 1003.72 1003.44 1003.24 1003.49 1003.77 1004.94 1007.05 1006.93 1005.97 1005.54 1006.49 1006.87 1007.67 1008.73 1009.69 1010.03 1010.67 1009.57 1008.63 1009.47 1010.30 1011.23 1012.39 1013.39 1014.39 1015.63
1016.28 1015.98 1015.07 1014.39 1015.45 1016.02 1016.09 1015.43 1014.26 1013.21 1012.40 1011.77 1011.60 1011.58 1011.29 1010.54 1009.81 1008.76 1006.39 1003.92 1002.92 1002.74 1003.16 1003.40 1004.60 1006.35 1006.39 1006.25 1005.62 1005.77 1006.09 1007.01 1007.99 1008.70 1009.06 1009.41 1008.95 1008.45 1009.00 1009.62 1010.67 1012.33 1013.70 1014.86 1015.75
1017.29 1016.83 1015.41 1015.37 1017.23 1017.40 1016.77 1015.79 1014.89 1014.06 1013.18 1012.77 1012.34 1011.59 1011.19 1010.94 1010.25 1008.57 1007.71 1005.19 1003.97 1002.88 1002.48 1003.05 1004.20 1006.16 1007.01 1007.00 1006.45 1005.76 1005.51 1005.56 1006.60 1007.22 1008.13 1008.96 1008.73 1008.69 1009.17 1009.85 1010.69 1012.10 1013.55 1014.63 1015.64
1018.10 1018.02 1017.52 1017.35 1018.08 1018.47 1017.78 1016.52 1015.57 1014.41 1013.60 1013.40 1012.82 1012.31 1012.48 1011.57 1010.97 1009.65 1008.27 1006.62 1005.05 1004.02 1003.05 1002.85 1003.64 1004.22 1004.58 1004.16 1005.53 1006.04 1005.69 1005.84 1006.37 1007.21 1007.36 1007.40 1008.36 1009.00 1009.72 1010.20 1011.02 1012.12 1013.07 1014.25 1015.37
1018.92 1019.48 1019.71 1019.64 1019.02 1019.36 1018.91 1017.38 1016.20 1015.55 1014.46 1013.61 1012.44 1012.53 1013.34 1012.43 1011.70 1010.22 1009.02 1008.20 1005.81 1004.92 1004.52 1003.55 1004.25 1004.60 1004.78 1004.78 1004.97 1005.06 1005.42 1005.66 1005.88 1005.42 1006.41 1006.66 1007.17 1007.80 1008.49 1009.31 1010.17 1011.60 1013.21 1014.27 1015.22
1019.85 1020.10 1019.94 1019.87 1019.64 1019.76 1019.03 1018.19 1016.99 1015.90 1015.25 1014.12 1013.67 1012.84 1012.43 1012.17 1011.75 1010.64 1009.88 1009.10 1007.44 1005.56 1005.04 1004.74 1005.22 1005.65 1005.58 1005.01 1004.66 1004.83 1004.66 1005.09 1005.17 1005.06 1005.10 1005.72 1006.25 1006.55 1007.60 1009.09 1010.68 1011.48 1012.48 1013.46 1014.40
1020.40 1020.32 1020.25 1019.96 1020.35 1020.49 1019.88 1019.00 1017.67 1016.65 1014.94 1014.11 1013.36 1012.90 1012.25 1011.28 1010.87 1010.39 1009.91 1009.33 1008.42 1007.69 1006.45 1005.68 1005.81 1006.72 1006.37 1005.97 1005.61 1005.09 1004.03 1003.84 1003.88 1004.16 1004.63 1005.09 1005.62 1006.70 1008.01 1008.52 1009.29 1010.45 1011.06 1012.15 1013.55
Thickness
5522 5525 5526 5530 5537 5544 5549 5559 5567 5577 5590 5598 5608 5616 5623 5630 5639 5646 5657 5675 5678 5680 5684 5687 5687 5689 5693 5692 5701 5705 5674 5672 5692 5702 5714 5726 5726 5735 5740 5731 5730 5734 5727 5731 5727
5498 5497 5499 5504 5511 5520 5529 5540 5550 5560 5573 5584 5594 5603 5614 5623 5631 5644 5666 5671 5674 5678 5676 5680 5676 5679 5678 5687 5691 5683 5672 5690 5712 5720 5718 5726 5729 5727 5724 5722 5716 5720 5730 5729 5726
5468 5467 5470 5476 5484 5493 5506 5517 5527 5540 5552 5568 5579 5591 5602 5612 5623 5652 5669 5669 5671 5676 5672 5676 5676 5675 5671 5682 5685 5688 5681 5706 5715 5723 5734 5722 5724 5734 5717 5713 5719 5717 5719 5721 5719
5444 5443 5443 5447 5457 5466 5478 5491 5506 5522 5535 5550 5563 5576 5586 5598 5612 5651 5660 5663 5666 5670 5667 5665 5667 5664 5664 5671 5686 5681 5697 5706 5715 5718 5725 5722 5725 5722 5724 5724 5729 5728 5725 5720 5714
5434 5432 5432 5432 5434 5441 5451 5466 5482 5500 5516 5535 5549 5558 5572 5586 5614 5645 5651 5659 5658 5661 5662 5662 5660 5662 5662 5672 5681 5680 5691 5703 5711 5715 5722 5724 5719 5716 5717 5728 5729 5724 5720 5715 5712
5426 5426 5428 5428 5429 5430 5435 5446 5461 5479 5497 5517 5531 5542 5559 5581 5617 5631 5641 5648 5651 5655 5657 5658 5662 5668 5665 5672 5671 5684 5685 5692 5705 5707 5714 5713 5712 5718 5712 5721 5721 5718 5713 5712 5711
5421 5420 5422 5422 5424 5425 5428 5434 5444 5461 5479 5496 5515 5528 5553 5580 5605 5619 5630 5634 5641 5649 5649 5655 5662 5659 5664 5666 5677 5681 5672 5680 5690 5698 5700 5708 5697 5700 5707 5711 5711 5708 5708 5709 5708
5412 5413 5415 5415 5418 5422 5426 5429 5435 5446 5467 5484 5499 5513 5539 5576 5592 5602 5616 5623 5630 5637 5644 5649 5651 5652 5654 5668 5673 5664 5663 5652 5678 5686 5694 5695 5676 5698 5703 5702 5700 5701 5702 5703 5705
5405 5407 5410 5411 5413 5417 5422 5429 5435 5440 5456 5476 5487 5504 5534 5572 5578 5596 5604 5610 5619 5625 5631 5640 5641 5639 5647 5641 5639 5648 5634 5654 5663 5676 5678 5681 5678 5697 5699 5698 5692 5696 5698 5699 5699
5400 5402 5405 5408 5410 5414 5420 5427 5436 5443 5447 5463 5476 5483 5525 5566 5575 5582 5592 5600 5604 5609 5614 5619 5620 5619 5623 5620 5615 5632 5641 5655 5651 5665 5671 5669 5677 5687 5694 5696 5691 5689 5691 5695 5697
5395 5398 5401 5404 5406 5410 5416 5421 5418 5425 5433 5457 5480 5479 5517 5546 5569 5574 5583 5585 5591 5593 5593 5605 5601 5613 5621 5632 5649 5646 5643 5648 5661 5669 5660 5659 5665 5673 5686 5687 5682 5683 5686 5689 5690
5391 5393 5396 5400 5404 5408 5410 5402 5403 5402 5408 5448 5471 5478 5496 5516 5547 5565 5575 5574 5576 5584 5588 5587 5600 5616 5624 5632 5637 5639 5638 5635 5652 5662 5660 5650 5655 5666 5672 5679 5680 5681 5680 5681 5680
5384 5388 5392 5396 5401 5404 5403 5400 5400 5396 5396 5439 5470 5492 5501 5509 5545 5560 5569 5574 5576 5578 5587 5589 5605 5613 5618 5621 5623 5627 5631 5632 5638 5649 5651 5645 5640 5651 5662 5672 5674 5678 5682 5678 5678
5378 5382 5386 5391 5396 5398 5400 5397 5393 5391 5400 5436 5473 5497 5498 5505 5531 5560 5570 5576 5568 5576 5582 5584 5602 5609 5612 5616 5624 5620 5639 5642 5628 5624 5614 5645 5613 5635 5651 5658 5665 5667 5670 5671 5671
5371 5377 5382 5385 5385 5389 5395 5394 5390 5391 5392 5445 5468 5486 5502 5501 5528 5547 5563 5564 5568 5579 5577 5588 5592 5599 5608 5623 5623 5619 5639 5631 5626 5619 5620 5628 5608 5638 5651 5645 5651 5657 5661 5663 5663
5366 5375 5380 5382 5384 5389 5392 5392 5388 5382 5378 5425 5416 5445 5484 5498 5520 5540 5545 5552 5568 5570 5578 5585 5602 5601 5613 5620 5621 5631 5625 5618 5612 5601 5582 5622 5624 5626 5641 5658 5663 5659 5656 5659 5658
5364 5376 5381 5383 5383 5387 5388 5388 5385 5379 5420 5405 5422 5442 5444 5462 5504 5528 5528 5532 5544 5551 5559 5571 5582 5597 5610 5603 5612 5617 5610 5565 5565 5563 5583 5613 5614 5638 5660 5673 5679 5669 5662 5654 5648
5365 5376 5382 5383 5384 5386 5385 5380 5353 5388 5399 5405 5423 5427 5442 5468 5496 5514 5528 5526 5540 5562 5556 5545 5544 5578 5598 5608 5609 5614 5614 5574 5555 5564 5589 5606 5602 5639 5650 5655 5668 5670 5659 5647 5640
5368 5374 5379 5379 5382 5382 5376 5362 5351 5394 5398 5401 5418 5418 5443 5480 5494 5503 5521 5534 5551 5556 5559 5556 5561 5587 5593 5609 5611 5594 5598 5613 5593 5593 5582 5602 5619 5635 5640 5640 5649 5651 5650 5643 5637
5365 5367 5371 5375 5378 5373 5363 5365 5386 5399 5399 5410 5407 5421 5419 5442 5462 5497 5511 5535 5545 5558 5578 5569 5553 5570 5583 5598 5599 5606 5618 5595 5578 5571 5583 5590 5607 5630 5625 5635 5634 5640 5642 5633 5629
5363 5365 5368 5374 5374 5369 5358 5360 5383 5393 5402 5405 5414 5415 5423 5432 5448 5459 5505 5538 5550 5558 5565 5569 5560 5550 5566 5574 5594 5586 5593 5595 5596 5581 5596 5586 5602 5644 5645 5646 5645 5644 5640 5634 5625
5356 5344 5367 5372 5353 5360 5340 5367 5386 5388 5396 5404 5407 5411 5420 5430 5441 5455 5489 5531 5554 5562 5553 5564 5551 5535 5558 5569 5591 5592 5600 5597 5591 5587 5582 5587 5610 5633 5645 5647 5646 5635 5626 5619 5618
5346 5351 5365 5364 5332 5329 5354 5368 5374 5380 5386 5391 5398 5416 5428 5429 5442 5461 5475 5515 5536 5551 5556 5556 5544 5525 5539 5551 5565 5582 5595 5614 5602 5600 5587 5588 5605 5624 5631 5634 5636 5628 5621 5617 5611
5343 5335 5342 5349 5344 5333 5348 5363 5367 5381 5386 5386 5394 5403 5401 5421 5424 5446 5470 5491 5510 5528 5551 5561 5546 5546 5552 5577 5567 5565 5580 5588 5587 5565 5590 5605 5619 5610 5616 5617 5619 5619 5618 5614 5608
5340 5343 5336 5322 5339 5338 5344 5343 5355 5356 5374 5381 5395 5393 5381 5398 5411 5444 5460 5463 5502 5519 5525 5544 5531 5544 5554 5565 5571 5572 5578 5582 5580 5604 5586 5605 5613 5620 5620 5620 5624 5617 5609 5604 5597
5344 5340 5337 5320 5324 5339 5337 5331 5344 5357 5361 5367 5368 5381 5388 5394 5406 5414 5435 5448 5477 5509 5522 5528 5512 5519 5538 5553 5567 5562 5574 5574 5581 5594 5604 5605 5606 5628 5622 5612 5603 5605 5602 5597 5593
5343 5338 5337 5332 5316 5317 5321 5330 5349 5359 5370 5372 5377 5375 5384 5400 5412 5424 5439 5447 5458 5467 5486 5501 5506 5500 5522 5529 5532 5515 5559 5577 5587 5594 5595 5586 5608 5598 5599 5607 5604 5601 5605 5600 5589